Change the Weather History Date:

Tuesday, March 12, 2013

  Actual Average Record
Temperature  
Mean Temperature 82 °F -  
Max Temperature 93 °F 75 °F 93 °F (2013)
Min Temperature 71 °F 55 °F 46 °F (2011)
Cooling Degree Days 17    
Growing Degree Days 32 (Base 50)    
Moisture  
Dew Point 33 °F    
Average Humidity 18    
Maximum Humidity 31    
Minimum Humidity 5    
Precipitation  
Precipitation 0.00 in 0.00 in - ()
Sea Level Pressure  
Sea Level Pressure 29.86 in    
Wind  
Wind Speed 14 mph ()    
Max Wind Speed 29 mph    
Max Gust Speed -    
Visibility 3.9 miles    
Events      
Averages and records for this station are not official NWS values.
T = Trace of Precipitation, MM = Missing Value Source: Averaged Metar Reports

Daily Weather History Graph

Daily Weather History Graph

Search for Another Location

Airport or City:

Trip Planner

Search our weather history database for the weather conditions in past years. The results will help you decide how hot, cold, wet, or windy it might be!

Date:

Astronomy

Mar. 12, 2013 Rise Set
Actual Time 6:07 AM EET 6:00 PM EET
Civil Twilight 5:43 AM EET 6:24 PM EET
Nautical Twilight 5:16 AM EET 6:52 PM EET
Astronomical Twilight 4:48 AM EET 7:20 PM EET
Moon 6:08 AM EET (3/12) 6:47 PM EET (3/12)
Length of Visible Light 12h 40m
Length of Day
11h 52m
New Moon, 0% of the Moon is Illuminated
Mar 12
New Moon
Mar 19
First Quarter
Mar 27
Full
Apr 3
Last Quarter
Apr 10
New

Hourly Weather History & Observations

Time (EET) Temp. Dew Point Humidity Pressure Visibility Wind Dir Wind Speed Gust Speed Precip Events Conditions
12:00 AM 73.4 °F 37.4 °F 27% 29.95 in - SSE 11.5 mph - N/A   Clear
12:30 AM 73.4 °F 37.4 °F 27% 29.95 in - SSE 11.5 mph - N/A   Clear
1:00 AM 73.4 °F 39.2 °F 29% 29.95 in - SSE 12.7 mph - N/A   Clear
1:30 AM 73.4 °F 39.2 °F 29% 29.92 in - SE 9.2 mph - N/A   Clear
2:00 AM 73 °F 38 °F 18% 29.93 in 6 mi SE 10.4 mph - -  
2:00 AM 73.4 °F 37.4 °F 27% 29.92 in - SE 10.4 mph - N/A   Clear
2:30 AM 73.4 °F 37.4 °F 27% 29.92 in - SSE 11.5 mph - N/A   Clear
3:00 AM 73.4 °F 37.4 °F 27% 29.92 in - SSE 13.8 mph - N/A   Clear
3:30 AM 73.4 °F 37.4 °F 27% 29.89 in - SSE 12.7 mph - N/A   Clear
4:00 AM 73.4 °F 37.4 °F 27% 29.89 in - SSE 12.7 mph - N/A   Clear
4:30 AM 73.4 °F 37.4 °F 27% 29.89 in - SSE 8.1 mph - N/A   Clear
5:00 AM 73.4 °F 37.4 °F 27% 29.89 in - SSE 10.4 mph - N/A   Clear
5:02 AM 73.4 °F 37.4 °F 27% 29.89 in - SSE 10.4 mph - N/A   Clear
5:30 AM 71.6 °F 37.4 °F 29% 29.89 in - SSE 11.5 mph - N/A   Clear
6:00 AM 71.6 °F 37.4 °F 29% 29.89 in - SSE 10.4 mph - N/A   Clear
6:30 AM 71.6 °F 39.2 °F 31% 29.89 in - SSE 11.5 mph - N/A   Clear
7:00 AM 73.4 °F 37.4 °F 27% 29.89 in - South 9.2 mph - N/A   Clear
7:30 AM 77.0 °F 35.6 °F 22% 29.89 in - SSE 9.2 mph - N/A   Clear
8:00 AM 79 °F 36 °F 12% 29.91 in 6 mi South 11.5 mph - -  
8:00 AM 78.8 °F 35.6 °F 21% 29.92 in - South 11.5 mph - N/A   Clear
8:30 AM 80.6 °F 33.8 °F 18% 29.89 in - SSE 17.3 mph - N/A   Clear
9:00 AM 84.2 °F 32.0 °F 15% 29.89 in - South 17.3 mph - N/A   Clear
9:30 AM 86.0 °F 32.0 °F 14% 29.89 in - South 19.6 mph - N/A   Clear
10:00 AM 86.0 °F 33.8 °F 15% 29.89 in - South 19.6 mph - N/A   Clear
10:30 AM 87.8 °F 33.8 °F 15% 29.89 in - South 19.6 mph - N/A   Clear
11:00 AM 87.8 °F 33.8 °F 15% 29.89 in - SSW 19.6 mph - N/A   Clear
11:30 AM 89.6 °F 33.8 °F 14% 29.86 in - SSW 19.6 mph - N/A   Clear
12:00 PM 89.6 °F 33.8 °F 14% 29.86 in 3.7 mi SSW 24.2 mph - N/A   Unknown
12:30 PM 89.6 °F 33.8 °F 14% 29.86 in 3.7 mi SSW 24.2 mph - N/A   Unknown
1:00 PM 89.6 °F 33.8 °F 14% 29.83 in 3.7 mi SSW 24.2 mph - N/A   Unknown
1:30 PM 89.6 °F 33.8 °F 14% 29.86 in 3.7 mi SSW 24.2 mph - N/A   Unknown
2:00 PM 93 °F 32 °F 5% 29.82 in 4 mi SSW 28.8 mph - -   Blowing Sand
2:00 PM 93.2 °F 32.0 °F 11% 29.83 in 3.7 mi SSW 28.8 mph - N/A   Unknown
2:30 PM 93.2 °F 32.0 °F 11% 29.83 in 3.7 mi SSW 28.8 mph - N/A   Unknown
3:00 PM 91.4 °F 32.0 °F 12% 29.80 in 3.7 mi SSW 26.5 mph - N/A   Unknown
3:30 PM 91.4 °F 30.2 °F 11% 29.80 in 3.7 mi SSW 21.9 mph - N/A   Unknown
4:00 PM 91.4 °F 30.2 °F 11% 29.80 in 3.7 mi SSW 23.0 mph - N/A   Unknown
4:30 PM 89.6 °F 30.2 °F 12% 29.80 in 2.5 mi SSW 24.2 mph - N/A   Sand
5:00 PM 89.6 °F 28.4 °F 11% 29.80 in 2.5 mi South 24.2 mph - N/A   Sand
5:30 PM 87.8 °F 23.0 °F 9% 29.77 in 2.5 mi SSW 16.1 mph - N/A   Sand
6:00 PM 87.8 °F 24.8 °F 10% 29.77 in 3.7 mi South 16.1 mph - N/A   Unknown
6:30 PM 86.0 °F 24.8 °F 11% 29.80 in 3.7 mi South 16.1 mph - N/A   Unknown
7:00 PM 86.0 °F 26.6 °F 12% 29.80 in 3.7 mi SSW 15.0 mph - N/A   Unknown
7:30 PM 84.2 °F 28.4 °F 13% 29.83 in 3.7 mi SSW 15.0 mph - N/A   Unknown
8:00 PM 83 °F 30 °F 7% 29.83 in 6 mi SSW 11.5 mph - -  
8:00 PM 84.2 °F 30.2 °F 14% 29.83 in - SSW 11.5 mph - N/A   Clear
8:30 PM 84.2 °F 30.2 °F 14% 29.83 in - SSW 11.5 mph - N/A   Clear
9:00 PM 82.4 °F 30.2 °F 15% 29.83 in - South 15.0 mph - N/A   Clear
9:30 PM 82.4 °F 30.2 °F 15% 29.83 in - South 15.0 mph - N/A   Clear
10:00 PM 80.6 °F 28.4 °F 15% 29.83 in - South 17.3 mph - N/A   Clear
10:30 PM 80.6 °F 28.4 °F 15% 29.83 in - South 17.3 mph - N/A   Clear
11:00 PM 80.6 °F 23.0 °F 12% 29.83 in - South 13.8 mph - N/A   Clear
11:30 PM 78.8 °F 21.2 °F 12% 29.83 in - South 11.5 mph - N/A   Clear